Regional Weather Roundup
Issued by NWS

Home | Current Version | Previous Version | Text Only | Print | Product List | Glossary On
Versions: 1 2 3 4 5 6 7 8 9 10 11 12 13 14 15 16 17 18 19 20 21 22 23 24 25 26 27 28 29 30 31 32 33 34 35 36 37 38 39 40 41 42 43 44 45 46 47 48 49 50
000
ASUS44 KOUN 010510
RWROK

WEATHER ROUNDUP FOR OKLAHOMA
NATIONAL WEATHER SERVICE NORMAN OK
1200 AM CDT SAT OCT 01 2016

NOTE: "FAIR" INDICATES FEW OR NO CLOUDS BELOW 12,000 FEET WITH NO
      SIGNIFICANT WEATHER AND/OR OBSTRUCTIONS TO VISIBILITY.

OKZ001>007-009>012-014-015-017-010600-
NORTHWEST OKLAHOMA AND THE PANHANDLE

CITY           SKY/WX    TMP DP  RH WIND       PRES   REMARKS
GAGE           PTCLDY    64  49  57 SE8       30.12R
GUYMON         CLEAR     60  49  66 SE8       30.10R
ENID/WOODRING  CLOUDY    55  50  82 CALM      30.11R
$$

OKZ016-021>023-033>039-044-045-010600-
SOUTHWEST OKLAHOMA

CITY           SKY/WX    TMP DP  RH WIND       PRES   REMARKS
LAWTON/REGL    MOCLDY    62  55  77 E3        30.11S
LAWTON/FT SILL MOCLDY    61  54  77 SE3       30.11R
FREDERICK      CLOUDY    62  54  74 SE7       30.08F
CLINTON        PTCLDY    62  52  69 S6        30.13S
HOBART         CLOUDY    63  53  70 S8        30.11F
ALTUS AFB      CLEAR     59  51  76 E7        30.10F
$$

OKZ018>020-024>031-010600-
CENTRAL OKLAHOMA

CITY           SKY/WX    TMP DP  RH WIND       PRES   REMARKS
OKLAHOMA CITY  MOCLDY    61  51  70 SE3       30.11S
OKC/WILEY POST CLOUDY    65  49  56 CALM      30.12S
OKC/TINKER AFB PTCLDY    60  52  73 SW2       30.10S
STILLWATER     CLEAR     51  48  89 CALM      30.11S
GUTHRIE        PTCLDY    55  51  86 CALM      30.11S
$$

OKZ008-013-054>072-010600-
NORTHEAST OKLAHOMA

CITY           SKY/WX    TMP DP  RH WIND       PRES   REMARKS
TULSA          PTCLDY    59  53  80 W3        30.10R
TULSA/JONES    CLEAR     56  53  90 CALM      30.11R
PONCA CITY     CLEAR     53  49  86 CALM      30.11S
BARTLESVILLE   PTCLDY    52  49  89 CALM      30.12S
MUSKOGEE       CLEAR     59  50  72 CALM      30.10F
$$

OKZ032-040>043-046>053-073>077-010600-
SOUTH CENTRAL/SOUTHEAST OKLAHOMA

CITY           SKY/WX    TMP DP  RH WIND       PRES   REMARKS
ARDMORE/DWNTWN CLOUDY    54  50  87 CALM      30.11R
MCALESTER      PTCLDY    53  48  83 CALM      30.10S
$$




USA.gov is the U.S. government's official web portal to all federal, state and local government web resources and services.